map of NVT home
Great Circle Mapper logo
NVT - Airport
Location
City:  Navegantes, Santa Catarina, Brazil
Name:Ministro Victor Konder International Airport
ICAO / IATA:SBNF / NVT

Details
Type:Airport (Aerodrome, Airfield)
Use:International (customs port of entry)
Latitude:2652'48"S (-26.879998)
Longitude:4839'05"W (-48.651389)
Datum:WGS 1984
Elevation:18 ft (5 m)
Variation:19.16W (WMM2015 magnetic declination)
-0.14 annual change
Runways:1
Longest:5581 × 148 ft (1701 × 45 m), paved

Time
Time Zone:UTC-3 (DST-2)
Local Time:

Weather
METAR:SBNF 240300Z 34002KT 9999 SCT009 23/22 Q1012
TAF:SBNF 240030Z 2406/2506 27005KT 9999 FEW020 TN22/2408Z TX28/2415Z
BECMG 2416/2418 16008KT BKN020 PROB40
TEMPO 2420/2506 16015KT 3000 RA BR B KN008 BKN015
RMK PDW

Related Locations
Nearby:
Farthest:KTD: 12365 mi / 19900 km
Kitadaito, Kita Daito Island, JP

Find:

   beyond  
but within

Other Information
Maps:
NOTAMs:
Links:
Sources:

  
flag of Brazil
flag of Santa Catarina
  

Sectional Chart

Flight Planning
at skyvector.com

Satellite Image

Google Maps Satellite View

 

Copyright © 2004-2015 Karl L. Swartz. All rights reserved.
The Great Circle Mapper name and logo are trademarks of the Great Circle Mapper.
All other trademarks mentioned herein belong to their respective owners.
Please see credits for attibutions and further copyright information.

  Follow gcmap on Facebook Follow gcmap on Twitter Follow gcmap on Google+

hCard Microformat

Geo Microformat